TimePST,TemperatureF,Dew PointF,Humidity,Sea Level PressureIn,VisibilityMPH,Wind Direction,Wind SpeedMPH,Gust SpeedMPH,PrecipitationIn,Events,Conditions,WindDirDegrees,DateUTC
12:56 AM,46.9,39.9,77,30.31,10.0,West,11.5,-,N/A,,Scattered Clouds,280,2013-01-29 08:56:00
1:56 AM,46.9,41.0,80,30.31,10.0,West,9.2,-,N/A,,Scattered Clouds,270,2013-01-29 09:56:00
2:56 AM,46.9,41.0,80,30.32,10.0,West,10.4,-,N/A,,Scattered Clouds,280,2013-01-29 10:56:00
3:56 AM,46.9,39.0,74,30.32,10.0,WNW,10.4,-,N/A,,Mostly Cloudy,290,2013-01-29 11:56:00
4:56 AM,45.0,37.9,76,30.32,10.0,West,8.1,-,N/A,,Mostly Cloudy,280,2013-01-29 12:56:00
5:56 AM,46.0,37.9,73,30.33,10.0,West,6.9,-,N/A,,Mostly Cloudy,270,2013-01-29 13:56:00
6:56 AM,46.0,37.9,73,30.35,10.0,West,6.9,-,N/A,,Overcast,280,2013-01-29 14:56:00
7:56 AM,46.9,39.0,74,30.35,10.0,WNW,8.1,-,N/A,,Overcast,290,2013-01-29 15:56:00
8:56 AM,48.9,39.9,71,30.35,10.0,WNW,8.1,-,N/A,,Mostly Cloudy,290,2013-01-29 16:56:00
9:56 AM,51.1,39.9,66,30.36,10.0,WNW,11.5,-,N/A,,Mostly Cloudy,290,2013-01-29 17:56:00
10:56 AM,50.0,43.0,77,30.37,10.0,ENE,4.6,-,N/A,,Mostly Cloudy,70,2013-01-29 18:56:00
11:56 AM,51.1,41.0,68,30.36,10.0,NE,6.9,-,N/A,,Mostly Cloudy,50,2013-01-29 19:56:00
12:56 PM,52.0,39.9,63,30.33,10.0,ENE,3.5,-,N/A,,Mostly Cloudy,60,2013-01-29 20:56:00
1:56 PM,55.0,41.0,59,30.30,10.0,WNW,9.2,-,N/A,,Mostly Cloudy,290,2013-01-29 21:56:00
2:56 PM,55.0,42.1,62,30.30,10.0,West,15.0,-,N/A,,Mostly Cloudy,280,2013-01-29 22:56:00
3:56 PM,55.0,43.0,64,30.29,10.0,West,15.0,-,N/A,,Mostly Cloudy,280,2013-01-29 23:56:00
4:56 PM,53.1,44.1,71,30.29,10.0,West,16.1,-,N/A,,Mostly Cloudy,280,2013-01-30 00:56:00
5:56 PM,51.1,44.1,77,30.30,10.0,West,12.7,-,N/A,,Scattered Clouds,270,2013-01-30 01:56:00
6:56 PM,51.1,44.1,77,30.30,10.0,West,10.4,-,N/A,,Scattered Clouds,260,2013-01-30 02:56:00
7:56 PM,50.0,44.1,80,30.30,10.0,West,5.8,-,N/A,,Partly Cloudy,260,2013-01-30 03:56:00
8:56 PM,50.0,43.0,77,30.30,10.0,WNW,5.8,-,N/A,,Partly Cloudy,290,2013-01-30 04:56:00
9:56 PM,48.0,41.0,77,30.31,10.0,Calm,Calm,-,N/A,,Partly Cloudy,0,2013-01-30 05:56:00
10:56 PM,48.0,41.0,77,30.30,10.0,Calm,Calm,-,N/A,,Partly Cloudy,0,2013-01-30 06:56:00
11:56 PM,48.0,42.1,80,30.31,10.0,West,3.5,-,N/A,,Partly Cloudy,260,2013-01-30 07:56:00